Date String (YYYY-MM-DD hh:mm:ss) UTC,Instrument flags,absolute air pressure of the measurement (hPa),sample flow rate (lpm),inlet stack bypass flow (lpm),air temperature of the measurement (°C),ambient temperature measured by the external sensor (°C),aerosol sample conditioner tube jacket temperature (°C),OPC LED temperature (°C),internal box temperature (°C),relative humidity of the measurement (%),span deviation,mass concentration of particles derived from Lorenz-Mie calculation of OPC scattering (μg/m³),mass concentration of particles derived from Lorenz-Mie calculation of OPC scattering (μg/m³),mass concentration of particles derived from Lorenz-Mie calculation of OPC scattering (μg/m³)
DateTimeUTC,F1_M11,P_M11,Q1_M11,Q2_M11,T1_M11,T2_M11,T3_M11,T4_M11,T5_M11,U1_M11,ZSPAN_M11,X0_M11,X2_M11,X1_M11
2023-07-02 23:00:00,SystemResetWarning,0831.1,5.01,000.00,028.8,027.5,000.0,037.1,030.6,24.6,0000.0,0010.30,0004.99,0004.64
2023-07-02 23:01:00,SystemResetWarning,0831.1,5.01,000.00,028.9,027.7,000.0,037.2,030.7,24.2,0000.0,0010.51,0004.99,0004.65
2023-07-02 23:02:00,SystemResetWarning,0831.1,4.98,000.00,028.9,026.6,000.0,037.1,030.6,25.1,0000.0,0010.86,0005.00,0004.65
2023-07-02 23:03:00,SystemResetWarning,0831.2,5.00,000.00,028.9,025.0,000.0,037.0,030.3,24.2,0000.0,0010.91,0004.98,0004.64
2023-07-02 23:04:00,SystemResetWarning,0831.1,5.00,000.00,028.8,024.8,000.0,036.9,030.2,24.4,0000.0,0011.02,0004.99,0004.63
2023-07-02 23:05:00,SystemResetWarning,0831.1,5.00,000.00,028.7,025.2,000.0,037.0,030.1,24.1,-000.1,0010.88,0005.00,0004.65
2023-07-02 23:06:00,SystemResetWarning,0831.2,5.01,000.00,028.7,025.6,000.0,037.0,030.1,23.3,-000.5,0010.34,0005.00,0004.66
2023-07-02 23:07:00,SystemResetWarning,0831.1,5.00,000.00,028.7,026.1,000.0,037.0,030.2,23.1,0000.1,0010.02,0005.04,0004.67
2023-07-02 23:08:00,SystemResetWarning,0831.1,5.00,000.00,028.7,026.6,000.0,037.1,030.3,23.6,0000.8,0010.12,0005.08,0004.68
2023-07-02 23:09:00,SystemResetWarning,0831.1,4.99,000.00,028.8,027.0,000.0,037.1,030.4,23.2,0000.5,0010.05,0005.08,0004.70
2023-07-02 23:10:00,SystemResetWarning,0831.2,5.00,000.00,028.8,027.3,000.0,037.1,030.5,22.8,0000.0,0009.87,0005.11,0004.72
2023-07-02 23:11:00,SystemResetWarning,0831.1,5.01,000.00,028.9,027.6,000.0,037.2,030.6,22.6,0000.0,0009.58,0005.12,0004.72
2023-07-02 23:12:00,SystemResetWarning,0831.1,4.99,000.00,028.9,027.5,000.0,037.2,030.7,22.6,0000.0,0009.07,0005.11,0004.72
2023-07-02 23:13:00,SystemResetWarning,0831.1,4.99,000.00,028.9,026.0,000.0,037.1,030.5,24.1,0000.0,0008.61,0005.08,0004.72
2023-07-02 23:14:00,SystemResetWarning,0831.1,5.01,000.00,028.8,024.8,000.0,037.0,030.3,23.6,0000.0,0008.36,0005.07,0004.73
2023-07-02 23:15:00,SystemResetWarning,0831.1,5.02,000.00,028.8,024.9,000.0,037.0,030.1,23.7,0000.0,0008.21,0005.07,0004.74
2023-07-02 23:16:00,SystemResetWarning,0831.1,5.00,000.00,028.7,025.3,000.0,037.0,030.1,23.8,0000.0,0008.13,0005.07,0004.74
2023-07-02 23:17:00,SystemResetWarning,0831.1,5.00,000.00,028.7,025.8,000.0,037.0,030.2,24.3,0000.0,0008.00,0005.04,0004.74
2023-07-02 23:18:00,SystemResetWarning,0831.1,5.00,000.00,028.7,026.3,000.0,037.1,030.3,25.0,0000.0,0008.08,0005.02,0004.74
2023-07-02 23:19:00,SystemResetWarning,0831.1,4.99,000.00,028.8,026.7,000.0,037.1,030.4,25.4,0000.0,0008.55,0004.99,0004.73
2023-07-02 23:20:00,SystemResetWarning,0831.1,5.00,000.00,028.8,027.1,000.0,037.1,030.5,23.5,0000.0,0008.81,0004.97,0004.72
2023-07-02 23:21:00,SystemResetWarning,0831.1,5.00,000.00,028.8,027.4,000.0,037.2,030.6,24.1,0000.0,0008.64,0004.92,0004.70
2023-07-02 23:22:00,SystemResetWarning,0831.1,5.00,000.00,028.9,027.7,000.0,037.2,030.7,23.9,0000.0,0008.72,0004.93,0004.69
2023-07-02 23:23:00,SystemResetWarning,0831.1,4.99,000.00,028.9,027.1,000.0,037.2,030.7,23.9,0000.0,0009.32,0004.94,0004.70
2023-07-02 23:24:00,SystemResetWarning,0831.0,4.99,000.00,028.9,025.4,000.0,037.0,030.4,23.6,0000.0,0010.35,0004.96,0004.70
2023-07-02 23:25:00,SystemResetWarning,0830.9,5.01,000.00,028.8,024.7,000.0,037.0,030.2,24.2,0000.0,0010.73,0004.97,0004.69
2023-07-02 23:26:00,SystemResetWarning,0830.9,5.02,000.00,028.7,025.1,000.0,037.0,030.1,22.7,0000.0,0010.82,0004.96,0004.69
2023-07-02 23:27:00,SystemResetWarning,0830.9,4.99,000.00,028.7,025.5,000.0,037.0,030.1,23.3,0000.0,0010.85,0004.95,0004.70
2023-07-02 23:28:00,SystemResetWarning,0831.0,5.00,000.00,028.7,026.0,000.0,037.0,030.2,24.2,0000.0,0011.01,0004.98,0004.70
2023-07-02 23:29:00,SystemResetWarning,0830.9,5.01,000.00,028.7,026.5,000.0,037.1,030.3,24.3,0000.0,0010.90,0004.97,0004.70
2023-07-02 23:30:00,SystemResetWarning,0830.9,5.00,000.00,028.8,026.9,000.0,037.1,030.4,24.3,0000.0,0010.89,0004.98,0004.70
2023-07-02 23:31:00,SystemResetWarning,0830.9,5.00,000.00,028.8,027.2,000.0,037.1,030.6,23.9,0000.0,0010.77,0004.98,0004.70
2023-07-02 23:32:00,SystemResetWarning,0830.9,5.00,000.00,028.9,027.5,000.0,037.2,030.6,24.1,0000.0,0010.92,0004.99,0004.70
2023-07-02 23:33:00,SystemResetWarning,0830.9,5.00,000.00,028.9,027.7,000.0,037.2,030.7,23.5,0000.0,0011.12,0004.99,0004.71
2023-07-02 23:34:00,SystemResetWarning,0830.9,4.98,000.00,028.9,026.5,000.0,037.1,030.5,23.1,0000.0,0010.66,0004.96,0004.71
2023-07-02 23:35:00,SystemResetWarning,0830.9,5.01,000.00,028.9,025.0,000.0,037.0,030.3,23.4,0000.0,0009.82,0004.96,0004.70
2023-07-02 23:36:00,SystemResetWarning,0830.9,5.01,000.00,028.8,024.8,000.0,037.0,030.2,23.5,0000.0,0009.25,0004.95,0004.70
2023-07-02 23:37:00,SystemResetWarning,0830.9,4.99,000.00,028.7,025.2,000.0,037.0,030.0,24.3,0000.0,0010.15,0004.97,0004.69
2023-07-02 23:38:00,SystemResetWarning,0830.9,5.00,000.00,028.7,025.7,000.0,037.0,030.1,24.9,0000.0,0010.42,0005.01,0004.68
2023-07-02 23:39:00,SystemResetWarning,0830.9,5.01,000.00,028.7,026.1,000.0,037.0,030.2,24.2,0000.0,0010.31,0005.00,0004.67
2023-07-02 23:40:00,SystemResetWarning,0830.9,5.00,000.00,028.7,026.6,000.0,037.1,030.4,24.2,0000.0,0010.27,0005.01,0004.67
2023-07-02 23:41:00,SystemResetWarning,0830.9,5.00,000.00,028.8,027.0,000.0,037.1,030.5,23.2,0000.0,0009.86,0005.02,0004.67
2023-07-02 23:42:00,SystemResetWarning,0830.9,5.00,000.00,028.8,027.3,000.0,037.1,030.6,22.9,0000.0,0009.45,0005.02,0004.67
2023-07-02 23:43:00,SystemResetWarning,0830.9,5.00,000.00,028.9,027.6,000.0,037.2,030.6,23.2,0000.0,0009.25,0005.02,0004.67
2023-07-02 23:44:00,SystemResetWarning,0831.0,5.00,000.00,028.9,027.5,000.0,037.2,030.7,22.9,0000.0,0009.27,0005.05,0004.67
2023-07-02 23:45:00,SystemResetWarning,0830.9,4.99,000.00,028.9,026.0,000.0,037.1,030.4,24.3,0000.0,0009.24,0005.08,0004.68
2023-07-02 23:46:00,SystemResetWarning,0830.9,5.01,000.00,028.8,024.8,000.0,037.0,030.2,24.6,0000.0,0010.38,0005.06,0004.68
2023-07-02 23:47:00,SystemResetWarning,0830.9,5.01,000.00,028.8,025.0,000.0,037.0,030.1,24.3,0000.0,0010.44,0005.07,0004.68
2023-07-02 23:48:00,SystemResetWarning,0830.9,5.02,000.00,028.7,025.4,000.0,037.0,030.0,23.6,0000.0,0009.48,0005.04,0004.68
2023-07-02 23:49:00,SystemResetWarning,0830.9,4.99,000.00,028.7,025.9,000.0,037.0,030.2,24.0,0000.0,0009.32,0005.04,0004.69
2023-07-02 23:50:00,SystemResetWarning,0830.9,5.00,000.00,028.7,026.3,000.0,037.1,030.3,24.1,-000.1,0010.26,0005.05,0004.69
2023-07-02 23:51:00,SystemResetWarning,0830.9,5.00,000.00,028.7,026.8,000.0,037.1,030.4,24.2,-000.4,0010.25,0005.04,0004.69
2023-07-02 23:52:00,SystemResetWarning,0831.0,4.99,000.00,028.8,027.1,000.0,037.1,030.5,23.8,-000.2,0010.24,0005.04,0004.70
2023-07-02 23:53:00,SystemResetWarning,0831.0,4.99,000.00,028.9,027.5,000.0,037.2,030.6,24.5,0000.0,0010.35,0005.06,0004.70
2023-07-02 23:54:00,SystemResetWarning,0831.0,5.01,000.00,028.9,027.7,000.0,037.2,030.7,23.4,0000.0,0010.49,0005.10,0004.70
2023-07-02 23:55:00,SystemResetWarning,0831.0,5.00,000.00,029.0,027.2,000.0,037.2,030.7,22.9,0000.6,0010.43,0005.09,0004.70
2023-07-02 23:56:00,SystemResetWarning,0830.9,4.99,000.00,028.9,025.5,000.0,037.1,030.4,23.1,0001.1,0010.64,0005.08,0004.71
2023-07-02 23:57:00,SystemResetWarning,0830.9,5.02,000.00,028.8,024.8,000.0,037.0,030.2,23.9,0001.3,0009.73,0005.14,0004.71
2023-07-02 23:58:00,SystemResetWarning,0830.9,5.01,000.00,028.8,025.1,000.0,037.0,030.1,24.0,0000.7,0010.11,0005.19,0004.72
2023-07-02 23:59:00,SystemResetWarning,0830.9,5.00,000.00,028.7,025.5,000.0,037.0,030.1,23.7,0000.3,0010.40,0005.23,0004.74
